カタログに戻る

CZ-4 DEB

運用中SSO
NORAD 26454·DEBRIS·🇨🇳 China

打ち上げ Oct 14, 1999 から Taiyuan Satellite Launch Center

Loading…

次のパス (今後24時間)

TLE

最新Source: Space-Track

元期: Sep 14, 2026, 03:28 UTC

1 26454U 99057KZ  26257.14506190  .00003922  00000-0  56880-3 0  9995
2 26454  98.3141 327.5347 0052089 179.7970 210.7169 14.75724997384730

AllMySatでCZ-4 DEBをリアルタイム追跡

Download on the App Store